"Pseudo-MPEC" for A10bh0e

Created 2019 Jan 12 1:18:03 UT using Find_Orb

Click here for an explanation of pseudo-MPECs

 
 Astrometry: 
     A10bh0e  C2019 01 09N,e!@cRo7l\DTNgAstrometry(we^p^-EW[hhP[Yi0?Te_q=.cdjT08
     A10bh0e  C2019 01 09:_@Rl?/M.wXC0G-OVMhMjwj.AR'n(dtA+L3J\:23r0Dt=M*j15mwT08
     A10bh0e  C2019 01 09!/[`[Heqcw+5a)cY0m#%ls[j5y#=2xaHGsdWXS?a=xLd!RiHL$8BT08
     A10bh0e  C2019 01 09)06+1%Ot](9yEkKdF#Sn)X`KKUFvfBZP2e;ODj#\sp[ra`\a=j0GT08
     A10bh0e KC2019 01 09$FI^P[#ldH6g*/]?\x%:BbJCdNJF.wJ.b^[e*FgAgq*Kjf#o+=lGL29
     A10bh0e KC2019 01 09Xj\fjDJc/QPmZrGGvp,mbSi,?9yQqj3]41anOptZB6[:]\jTh^puL29
     A10bh0e KC2019 01 097F4t4y5)N,W.`yyA:\W*6yB-uIcji?je$TTXj],Pno6nn2bPiFAiL29
     A10bh0e KC2019 01 09(eRbP1=*i-AO76DM^l9Fw)lL5j(ERd0^L;oiy^PA4g12oI%.ok;tL29
     A10bh0e KC2019 01 099w*xIyGmx,Cste*,4Sevgh;_I5G\/:Ym8\l`OjFMd@lHVl23D*O*L29
     A10bh0e KC2019 01 09N89@RheRo)La+RA;xxNfBX;f31/o12C#KdUm)-c2Y$qe3dxaPtsEL29
     A10bh0e KC2019 01 09Q[KT`icSrJp^]O/redacted;IOBg']q!1pVp(C?0NT5):$FHPqhTL29
     A10bh0e KC2019 01 09#1oYBe5mHXf2aAGj5%j]/aVQ#(MTr14Aj0-#U8jAy1hCFG4^VO:aL29
     A10bh0e KC2019 01 09k]42'DsaH(8IS#kQ#8?aHnU/:My3REXiYDqWX%2qJ@NoqR.6mV*#K88
     A10bh0e KC2019 01 09iLQhw.,/h`B_db4Z3@h#gx-jr,tkq1/;]:)ZIii7OeP:'tn8qn%JK88
     A10bh0e KC2019 01 09BQG\Z[_I$PyD'mKEg@^]kQpB5AwL+?#RU^g;alk`6rS;rt50W'(/K88
     A10bh0e  C2019 01 09mQwJ^SbKHJq90af#8llHJMP3%:FsmxJq\WZa%*Ysn@_fwwYDy]q)J04
     A10bh0e  C2019 01 097w\bor?OYyYlr'gWnd.Mba0ZjZdsx;W689Ra1K6EJI7BQ$SyC;L+J04
     A10bh0e  C2019 01 09@yw87kDSVpi!@mm=xqpw:fIh9?[cIU?RXnwVGTLj/G]d[N4XB[BCJ04
     A10bh0e KC2019 01 09.96395106 29 00.17 +09 24 03.1    ~1A0I 17.7 GVNEOCPJ95
     A10bh0e KC2019 01 09.96643906 28 58.93 +09 24 16.2    ~1A0I 18.2 GVNEOCPJ95
     A10bh0e KC2019 01 09.96790406 28 58.23 +09 24 23.6    ~1A0I 18.3 GVNEOCPJ95
     A10bh0e KC2019 01 09.96935606 28 57.50 +09 24 31.4    ~1A0I 18.1 GVNEOCPJ95
     A10bh0e KC2019 01 09Wh?i\=y]KLMZM177Fe%%-Z:*#il5Z1HkSg4i*4L/`Tj3e[$eF]D-L01
     A10bh0e IC2019 01 09/bI1TyhF]Lm7OEr-1rkUYbnq7v._W294e[ZH^`og,*fX7Q*(-dEUL01
     A10bh0e KC2019 01 09!n*5YeI\#/Q$P8b=JyHU\Us'e.==+y.,Hlu[WDq5.#m^;UUeT$tjL01
     A10bh0e KC2019 01 10oaB#GjoC%'AQpOTchoC4L!c=iclick0hg@W7[Sn(w%EGSov-XdVvH21
     A10bh0e KC2019 01 10Rbt8s1sLYIw[%v(3k%@ICQy+vI*uU]);0nh\Nj_KeH.x9gr=1#pyH21
     A10bh0e KC2019 01 10+XUMCR!hlLnWN/hD[+U_!%^NyBBN\'`7w34*hvop-CM1qwp\L+A^K51
     A10bh0e KC2019 01 10jU:$_][5RQBuX^a)51cL]IG]-dYt=7!-F;e_xFt*RdTAnCRWo6MhK63
     A10bh0e KC2019 01 10^DXJ)1p#;sug'[$Ilt_Mj2;KsWHqta;R1x=[U38N.%/%:4N,b33,K51
     A10bh0e KC2019 01 10DYA:f,l)AHYv%^`*RN29jyLvxUTK:hJtc`o0CjX`J/?bI#;w5Tg4K51
     A10bh0e KC2019 01 10P9J40KDSpWmt@f\iiQf$_-8@$%UPq+ig/F!sKy'uVtov;,?*]_cwK63
     A10bh0e KC2019 01 10!+2DLAj';p'Bk7p;heG-p^m3[9hRd#%ebk0ifTp'$w#p5N1Wm2d=K63
     A10bh0e KC2019 01 10*ivcU^T?MAsxxuZHdb3AUE`s;q#GvB,frou1$:8yg6U?25APQTLa203
     A10bh0e KC2019 01 10p44T,LO=PCVOdl**XtKc%Z5f3U6l8-Zc425=P?:`n%RS/e'4N,n=K41
     A10bh0e KC2019 01 10?YEyw322QRkJ.-Ys4H!uHRjO%UI8TH5A4HLPTrRTBaV4P$6%tT'MK41
     A10bh0e KC2019 01 10b\4)q60Gjhere(TxJ;nOE*e$%t,,s=lMwji3$L*:\,^d`75!+o**203
     A10bh0e KC2019 01 10?=21D/!gBZ9'Nv3g`sXON=EXHy\1XZwwlbuUcbQwXLRE98qhF4g%K41
     A10bh0e KC2019 01 10[usM]I\14xgl$?8=20hTWA6m-QH+M*G1=Jn=[(o#Nsvfj.QXb.5)203
     A10bh0e KC2019 01 10W4!Xr(nj=P_t$3qEWYv6B^%%\aJeEEvZ!T4s6(c.X#(\jy'GYW]UK38
     A10bh0e KC2019 01 10q#^m7_K2lSveS)!C\)jo:(JVD9-Vw$Y5Lpt(A-tN]u9jX:3:wW08K38
     A10bh0e KC2019 01 10n%4M::wiBPpFgk_WISj+!(C;kSDGIht=\q`$i6u5#@N4D[XfZDcuK38
     A10bh0e 3C2019 01 10-QI%4telcVAR3bH`aZ(:Fki`qEcFRno1(iQO,ap^t2vrWNbKtS;5G40
     A10bh0e 3C2019 01 10?\x!OP26!Kd3ia`Irh1w=?8RLY2wlxp(vq.%uo#FZjiu*9Gs$D6CG40
     A10bh0e 3C2019 01 10R=DOhS.j($G(88q3vd4oiX_2oM\?'][ZTcC3K3oO[wAMH.I3B?VUG40
     A10bh0e KC2019 01 10g%!q_:Lj'usr;iu#m.Ff!D`%PsIr6)MaBlUI6\D/S=$Bl(5(!r)F204
     A10bh0e HC2019 01 10BoP]kv8:2N_u'VT$H6mIN!o`=yl)VhR,KD(=^nlwiM-CQ/3EeQH9204
     A10bh0e KC2019 01 10-[`2`*forn$BJt,w'))7=(VHPp/Gp3q@xwd8d3-Of'5=bsSj(0lX204
     A10bh0e KC2019 01 10l/)jim(TZx;0By5^r68bUQ(0dXy;JbxnQFP+(jFBj6[bLM%jO4u1204
     A10bh0e KC2019 01 11_T7Fv)wq)s;?T#k'\60p1A;qd8'Xx[Ni[Ne;Wbfa6'D_rLAb\8sXW34
     A10bh0e KC2019 01 11Q-(@BW`7h$O8+0]D(cfjyX=W?brhTJO7DqH*c6-gfELP\q2E7VEIW34
     A10bh0e KC2019 01 11$ed./YJmB`/\V\-h\xD[Gr7C.n]fYt[eT_XvEY`3v\o)%+'#f(u$W34
     A10bh0e KC2019 01 11dD@ORYbO$A5^.1uWncO#O1y-6\Yx,c+8l]qT2PO!4]fco4cX=A-NW34
     A10bh0e  C2019 01 11.22244 06 18 16.06 +11 21 14.7    ~1B6I 18.2 GVNEOCPI52
     A10bh0e  C2019 01 11.22371 06 18 15.37 +11 21 22.2    ~1B6I 17.9 GVNEOCPI52
     A10bh0e  C2019 01 11.22499 06 18 14.66 +11 21 29.6    ~1B6I 17.9 GVNEOCPI52
     A10bh0e KC2019 01 11=mZH+L_W[L-dMun_q(OC6Nq+m(Z0E'jGfp,w+X^p`ZrTsi6OrjM.104
     A10bh0e KC2019 01 11PK/@LOjYMvk1lQE_r-PH%@ug9?5%F=UKOx0@W]pHHTnZmfgC4Fcg104
     A10bh0e KC2019 01 11FTUvRepcH@fp\tg+)es))]J:t'Q#x1WNBD[DdG:Fu3cE(k(1(R%Z104
     A10bh0e KC2019 01 11]ci[D3yF'EA:a^2`fXBQ:NW=bhPxwuE4^ho]Un]7mX+.=rH]PDijB49
     A10bh0e KC2019 01 113?33-L!/1JlHq$S%A%'YUKwV;XxSF=AYJm4VE*G!UZZa[6f7jcm+B49
     A10bh0e KC2019 01 11!fM5F)5P+\Q17egrbl9R/`7+QP'm0(Y7r%t-/YexplanationC:kB49

Station data:
(104) San Marcello Pistoiese  (N44.063037 E10.804200)  Italy. 0.40-m f/5
   reflector.
(203) GiaGa Observatory  (N45.541408 E8.995500)  Italy. 0.13-m f/6.4
   refractor.
(204) Schiaparelli Observatory  (N45.867933 E8.770800)  Italy.  Observer L.
   Buzzi. 0.60-m f/4.64 Newtonian + CCD.
(B49) Paus Observatory, Sabadell  (N41.551135 E2.112690)  Spain.
(G40) Slooh.com Canary Islands Observatory  (N28.299720 W16.508260)  Canary
   Islands (Spain).  Observers G. Gašparović, Y. Chen. 0.43-m f/6.8 Corrected
   Dall-Kirkham + CCD.
(H21) Astronomical Research Observatory, Westfield  (N39.483057 W87.968270)
   US/Illinois. 0.76-m f/3.0 astrograph + CCD.
(I52) Steward Observatory, Mt. Lemmon Station  (N32.442547 W110.788920)
   US/Arizona.  Observers B. M. Africano, E. J. Christensen, G. A. Farneth,
   D. C. Fuls, A. R. Gibbs, A. D. Grauer, H. Groeller, J. A. Johnson, R. A.
   Kowalski, S. M. Larson, G. J. Leonard, R. L. Seaman, F. C. Shelly. 1.0-m
   reflector + CCD.
(J04) ESA Optical Ground Station, Tenerife  (N28.300924 W16.511830)  Canary
   Islands (Spain).  Observer D. Abreu. Measurers M. Micheli, D. Koschny, E.
   Schwab, M. Busch, A. Knöfel. 1.0-m f/4.4 reflector + CCD.
(J95) Great Shefford  (N51.474969 W1.447003)  UK.  Observer P. Birtwhistle.
   0.40-m f/6.0 Schmidt-Cassegrain + CCD.
(K38) M57 Observatory, Saltrio  (N45.873785 E8.918240)  Italy.
(K41) Vegaquattro Astronomical Obs., Novi Ligure  (N44.771183 E8.793000)
   Italy.
(K51) Osservatorio del Celado, Castello Tesino  (N46.029412 E11.657900)
   Italy.
(K63) G. Pascoli Observatory, Castelvecchio Pascoli  (N44.082410 E10.462000)
   Italy.
(K88) GINOP-KHK, Piszkéstető  (N47.917622 E19.893600)  Hungary.  Observer K.
   Sárneczky. 0.60-m Schmidt + CCD.
(L01) Višnjan Observatory, Tičan  (N45.290900 E13.749300)  Croatia.
   Observers K. Korlević, E. Pettarin. Measurer E. Pettarin. 1.0-m f/2.9
   reflector + CCD.
(L29) Drebach-South Observatory, Windhoek  (S23.460102 E18.016900)  Namibia.
(T08) ATLAS-MLO, Mauna Loa  (N19.535772 W155.576400)  US/Hawaii.
(W34) Squirrel Valley Observatory, Columbus  (N35.225393 W82.154700)
   US/North Carolina.  Observer R. L. Flynn. 0.20-m f/10 Schmidt-Cassegrain +
   f/7.0 focal reducer.

Orbital elements:  A10bh0e
   Perihelion 2019 Mar 17.986755 +/- 0.105 TT = 23:40:55 (JD 2458560.486755)
Epoch 2019 Jan 11.0 TT = JDT 2458494.5   Earth MOID: 0.0943   Ve: 0.0488
M 330.46172091 +/- 0.42             (J2000 ecliptic)          AutoNEOCP
n   0.44763951 +/- 0.00571          Peri.  113.19120 +/- 0.10
a   1.69245489 +/- 0.0143           Node   110.10970 +/- 0.022
e   0.7150492 +/- 0.00259           Incl.   40.87199 +/- 0.21
P   2.20/804.20d           H 20.2   G  0.15   U  9.3  
q 0.48226628 +/- 0.000279    Q 2.90264350 +/- 0.0286
From 62 observations 2019 Jan. 9-11; mean residual 0".28
Residuals in arcseconds: 
190109 T08  .65-  .33+    190109 J95  .11+  .15-    190110 G40  .07-  .01+    
190109 T08  .42-  .37+    190109 L01  .23+  .17+    190110 G40  .25-  .09+    
190109 T08  .45+  .62-    190109 L01  .09+  .39-    190110 G40  .20-  .03+    
190109 T08  .59-  .10-    190109 L01  .29+  .22+    190110 204  .07-  .47-    
190109 L29  .33-  .03+    190110 H21  .03+  .02+    190110 204  .16-  .21-    
190109 L29  .21-  .28+    190110 H21  .07+  .04+    190110 204  .00   .34+    
190109 L29  .23-  .23+    190110 K51  .02+  .05-    190110 204  .09+  .25+    
190109 L29  .18-  .13+    190110 K63  .47+  .21+    190111 W34  .60-  .10+    
190109 L29  .34-  .28+    190110 K51  .02-  .06-    190111 W34  .06-  .37+    
190109 L29  .05-  .13+    190110 K51  .05-  .07+    190111 W34  .06+  .22+    
190109 L29  .17-  .18+    190110 K63  .10+  .21+    190111 W34  .39+  .27+    
190109 L29  .31-  .27-    190110 K63  .31+  .32+    190111 I52  .14-  .22-    
190109 K88  .14-  .20+    190110 203  .12-  .29+    190111 I52  .05+  .17-    
190109 K88  .12+  .18-    190110 K41  .57-  1.2-    190111 I52  .04+  .28-    
190109 K88  .06-  .05-    190110 K41  .23-  .19-    190111 104  .10-  .13+    
190109 J04  .07-  .10+    190110 203  .15-  .03-    190111 104  .20+  .43-    
190109 J04  .19-  .11-    190110 K41  .49-  .15+    190111 104  .49+  .14+    
190109 J04  .06-  .03+    190110 203  .03+  .13+    190111 B49  .26+  .26+    
190109 J95  .20+  .22+    190110 K38  .80-  .19-    190111 B49  .01-  .13+    
190109 J95  .01-  .12+    190110 K38  .16-  .19-    190111 B49  .01+  .11+    
190109 J95  .32+  .25-    190110 K38  .05+  .30-    

Ephemerides (geocentric):
Date (UTC) HH   RA              Dec         delta   r     elong  mag " sig PA
---- -- -- --  -------------   -----------  ------ ------ -----  --- ---- ---
2019 01 12 01  06 10 35.117   +12 43 57.33  .24385 1.2138 158.6 18.4 .114 170
2019 01 12 02  06 10 10.782   +12 48 17.08  .24344 1.2133 158.5 18.4 .116 172
